Regional Weather Roundup
Issued by NWS Charleston, SC

Current Version | Previous Version | Graphics & Text | Print | Product List | Glossary On
Versions: 1 2 3 4 5 6 7 8 9 10 11 12 13 14 15 16 17 18 19 20 21 22 23 24 25 26 27 28 29 30 31 32 33 34 35 36 37 38 39 40 41 42 43 44 45 46 47 48 49 50
504
ASUS42 KCHS 300112
RWRCHS

REGIONAL WEATHER ROUNDUP
NATIONAL WEATHER SERVICE CHARLESTON SC
900 PM EDT MON MAY 29 2017

NOTE: "FAIR" INDICATES FEW OR NO CLOUDS BELOW 12,000 FEET WITH NO
SIGNIFICANT WEATHER AND/OR OBSTRUCTIONS TO VISIBILITY.

NOT ALL STATIONS ARE QUALITY CONTROLLED. USE DATA WITH CAUTION...
ESPECIALLY DEWPOINT OBSERVATIONS.

SCZ027-030-031-034>040-042>050-300200-
...SOUTHEAST SOUTH CAROLINA...

CITY           SKY/WX    TMP DP  RH WIND       PRES   REMARKS
N CHARLESTON   PTCLDY    79  68  69 SW10      30.00R
WATERFRONT PRK   N/A     80  73  79 SW7       29.97R
JOHNS ISLAND   FAIR      81  70  69 S8        30.00S
PINOPOLIS        N/A     82  75  78 VRB2      29.91R
MONCKS CORNER  FAIR      81  70  69 S5        29.99R
SUMMERVILLE    FAIR      81  72  74 CALM      30.00R
BEAUFORT MCAS  PTCLDY    80  74  81 S3        30.00R
BEAUFORT ARPT  FAIR      79  72  78 S6        30.00R
HILTON HEAD IS PTCLDY    81  73  78 S7        30.02R
WALTERBORO     PTCLDY    81  72  74 S6        30.01R
ALLENDALE      FAIR      84  68  58 CALM      29.99R

...SOUTHERN MIDLANDS AND PEE DEE...

CITY           SKY/WX    TMP DP  RH WIND       PRES   REMARKS
GEORGETOWN     FAIR      77  72  83 S8        30.01S
KINGSTREE      MOCLDY    79  72  78 CALM      29.98R
ORANGEBURG     CLOUDY    77  65  66 NW9       30.02R
BARNWELL       FAIR      79  68  69 N12G17    30.02R
AIKEN          FAIR      66  64  94 CALM      30.05F
MANNING        FAIR      79  73  83 SE13G28   29.97S
COLUMBIA       TSTM      74  69  85 NW9       30.00F
SUMTER         LGT RAIN  72  68  88 N7        29.99S
FLORENCE       CLOUDY    81  69  67 W3        30.00R
MYRTLE BEACH   CLEAR     79  72  78 SW14      30.00R
N MYRTLE BEACH CLEAR     78  73  84 SW12      30.00R

$$

GAZ063-065-086>088-099>101-113>116-118-119-134>141-150-300200-
...SOUTHEAST GEORGIA...

CITY           SKY/WX    TMP DP  RH WIND       PRES   REMARKS
SAVANNAH ARPT  MOCLDY    82  72  71 S8        30.01R
HUNTER AAF     PTCLDY    80  77  89 CALM      29.98R
FORT STEWART   PTCLDY    83  73  72 SE6       29.98R
STATESBORO     LGT RAIN  76  72  87 CALM      30.01R
SYLVANIA       LGT RAIN  83  73  72 CALM      30.01R
CLAXTON        FAIR      80  74  82 CALM      30.01R

...CSRA...CENTRAL AND FAR SOUTHEAST GEORGIA...

CITY           SKY/WX    TMP DP  RH WIND       PRES   REMARKS
THOMSON        FOG       69  68  98 CALM      30.08R VSB 1/2
AUGUSTA-BUSH   CLOUDY    74  69  85 N7        30.01S
AUGUSTA-DANIEL PTCLDY    72  67  84 CALM      30.03R
SWAINSBORO     FAIR      81  72  74 NW3       30.02R
VIDALIA        CLEAR     82  72  69 N3        30.01S
EASTMAN        FAIR      78  65  64 CALM      30.04R
HAZLEHURST     FAIR      83  75  77 CALM      30.00R HX  91
ALMA           CLEAR     86  69  56 SW5       30.01R HX  90
WAYCROSS       CLEAR     88  73  61 W6        30.01R HX  95
JESUP          FAIR      82  70  65 CALM      30.00R
BAXLEY         FAIR      84  73  70 CALM      30.00R HX  91
BRUNSWICK      CLEAR     82  75  78 S8        30.02R
SAINT SIMONS   CLEAR     82  73  74 S7        30.02R

$$

SCZ027-028-034-036>038-045-046-048>050-GAZ119-141-300200-
...LAKE AND SUPPLEMENTAL COASTAL OBSERVATIONS...

STATION/POSITION TIME  TEMP    WIND        PRES    WAVE   SWELL
                       AIR SEA DIR/SP/G            HT/PER HT/PER/DIR
                 (UTC) (F)     (DEG/KT/KT) (MB)    (FT/S) (FT/S/D)
WINYAH BAY       2345   81     200/  9     1015.0
LAKE MURRAY      0020   76     260/ 11/ 12 1016.3R
ACE BASIN NERRS  NOT AVBL
FORT PULASKI     0042   80     200/  6/ 10 1016.3R
SAPELO ISLAND    0000   82     170/ 11     1016.0

$$

ANZ835-935-AMZ111-154-330-350-352-354-370-450-454-472-300200-
...C-MAN AND BUOY OBSERVATIONS...

STATION/POSITION TIME  TEMP    WIND        PRES    WAVE   SWELL
                       AIR SEA DIR/SP/G            HT/PER HT/PER/DIR
                 (UTC) (F)     (DEG/KT/KT) (MB)    (FT/S) (FT/S/D)
BUOY 41004       0050   78 77  200/ 10/ 12 1015.9S   2/ 5   2/140/ 7
BUOY 41008       2350   80 79  150/ 12/ 16 1015.5    2/ 3
FOLLY BEACH CMAN 0100   79     200/  9/ 10 1016.7R
CAPERS NEARSHORE 0008   83 79  210/ 12/ 17 1015.5R
FRIPP NEARSHORE  0008   80 80  180/ 12/ 14 1015.4S


STATION/POSITION TIME  TEMP    WIND        PRES    WAVE   SWELL
                       AIR SEA DIR/SP/G            HT/PER HT/PER/DIR
                 (UTC) (F)     (DEG/KT/KT) (MB)    (FT/S) (FT/S/D)
5E ST. MARYS GA  0030      80                N/A     2/ 3
FRYING PAN BUOY  0050   77 76  220/ 12/ 14 1016.1R   2/ 5   2/130/ 8
BUOY 41025       0050   78 77  200/  6/  8 1016.1R   2/10   2/ 20/10
CAPE LOOKOUT NC  0000   77     220/  6/  7 1015.3R
BUOY 41002       2350   78 78  230/ 10/ 12 1017.2    3/ 5   3/200/ 5
BUOY 41010       0050   82 81  180/  4/  4 1018.0R   2/ 5   2/190/ 5
ST AUGUSTINE FL  0100   78 80  170/ 12/ 14 1017.8R


$$




USA.gov is the U.S. government's official web portal to all federal, state and local government web resources and services.